• In Hungary
  • List of Countries
  • For 7 days
  • Water Temperature
  • Satellite Maps
  • Weather Map
  • News
  • Weather Widgets
  • user-avatar
    Login

    Hourly Weather Tatabanya

    Today, 22 October, Monday

    Time Temperature Precipitation Wind Pressure Humidity
    00:00 +9°C° 0 mm 2 mps 748 mmHg 69%
    01:00 +9°C° 0 mm 2 mps 748 mmHg 70%
    02:00 +9°C° 0 mm 2 mps 748 mmHg 71%
    03:00 +9°C° 0 mm 2 mps 748 mmHg 72%
    04:00 +9°C° 0 mm 2 mps 748 mmHg 73%
    05:00 +8°C° 0 mm 2 mps 748 mmHg 73%
    06:00 +8°C° 0 mm 2 mps 748 mmHg 73%
    07:00 +9°C° 0 mm 1 mps 748 mmHg 74%
    08:00 +11°C° 0 mm 1 mps 748 mmHg 68%
    09:00 +12°C° 0 mm 1 mps 748 mmHg 62%
    10:00 +13°C° 0 mm 1 mps 748 mmHg 56%
    11:00 +14°C° 0 mm 1 mps 748 mmHg 53%
    12:00 +15°C° 0 mm 2 mps 747 mmHg 51%
    13:00 +16°C° 0 mm 2 mps 747 mmHg 49%
    14:00 +16°C° 0 mm 2 mps 747 mmHg 50%
    15:00 +16°C° 0 mm 2 mps 747 mmHg 51%
    16:00 +15°C° 0 mm 2 mps 746 mmHg 52%
    17:00 +14°C° 0 mm 2 mps 746 mmHg 56%
    18:00 +13°C° 0 mm 2 mps 746 mmHg 60%
    19:00 +12°C° 0 mm 2 mps 747 mmHg 63%
    20:00 +10°C° 0 mm 2 mps 747 mmHg 64%
    21:00 +10°C° 0 mm 2 mps 747 mmHg 65%
    22:00 +9°C° 0 mm 2 mps 747 mmHg 65%
    23:00 +9°C° 0 mm 3 mps 747 mmHg 66%

    Tomorrow, 23 October, Tuesday

    Time Temperature Precipitation Wind Pressure Humidity
    00:00 +9°C° 0 mm 3 mps 747 mmHg 67%
    01:00 +9°C° 0 mm 3 mps 747 mmHg 67%
    02:00 +8°C° 0 mm 3 mps 747 mmHg 69%
    03:00 +8°C° 0 mm 3 mps 746 mmHg 70%
    04:00 +8°C° 0 mm 3 mps 746 mmHg 71%
    05:00 +7°C° 0 mm 4 mps 746 mmHg 72%
    06:00 +7°C° 0 mm 4 mps 746 mmHg 73%
    07:00 +7°C° 0 mm 4 mps 746 mmHg 75%
    08:00 +10°C° 0 mm 4 mps 746 mmHg 69%
    09:00 +10°C° 0 mm 5 mps 746 mmHg 64%
    10:00 +13°C° 0 mm 5 mps 746 mmHg 58%
    11:00 +13°C° 0 mm 6 mps 745 mmHg 55%
    12:00 +14°C° 0 mm 6 mps 745 mmHg 52%
    13:00 +14°C° 0 mm 7 mps 744 mmHg 49%
    14:00 +14°C° 0 mm 6 mps 743 mmHg 50%
    15:00 +14°C° 0 mm 6 mps 743 mmHg 51%
    16:00 +13°C° 0 mm 6 mps 742 mmHg 52%
    17:00 +13°C° 0 mm 6 mps 742 mmHg 52%
    18:00 +12°C° 0 mm 7 mps 742 mmHg 52%
    19:00 +11°C° 0 mm 7 mps 742 mmHg 52%
    20:00 +11°C° 0 mm 7 mps 741 mmHg 55%
    21:00 +11°C° 0 mm 7 mps 741 mmHg 58%
    22:00 +10°C° 0 mm 7 mps 740 mmHg 61%
    23:00 +10°C° 0 mm 7 mps 740 mmHg 61%

    Day after tomorrow, 24 October, Wednesday

    Time Temperature Precipitation Wind Pressure Humidity
    00:00 +11°C° 0 mm 8 mps 739 mmHg 61%
    01:00 +11°C° 0 mm 8 mps 738 mmHg 61%
    02:00 +11°C° 0 mm 8 mps 737 mmHg 62%
    03:00 +11°C° 0 mm 8 mps 737 mmHg 62%
    04:00 +11°C° 0 mm 8 mps 736 mmHg 62%
    05:00 +12°C° 0 mm 9 mps 735 mmHg 61%
    06:00 +12°C° 0 mm 10 mps 735 mmHg 60%
    07:00 +12°C° 0 mm 11 mps 734 mmHg 59%
    08:00 +12°C° 0.7 mm 11 mps 734 mmHg 61%
    09:00 +12°C° 0.7 mm 10 mps 735 mmHg 64%
    10:00 +12°C° 0.7 mm 10 mps 735 mmHg 66%
    11:00 +12°C° 0.6 mm 10 mps 735 mmHg 61%
    12:00 +11°C° 0.6 mm 10 mps 736 mmHg 55%
    13:00 +11°C° 0.6 mm 9 mps 736 mmHg 50%
    14:00 +11°C° 0 mm 9 mps 737 mmHg 47%
    15:00 +10°C° 0 mm 8 mps 737 mmHg 44%
    16:00 +10°C° 0 mm 8 mps 738 mmHg 41%
    17:00 +9°C° 0 mm 7 mps 738 mmHg 45%
    18:00 +8°C° 0 mm 7 mps 739 mmHg 48%
    19:00 +7°C° 0 mm 6 mps 740 mmHg 51%
    20:00 +7°C° 0 mm 6 mps 740 mmHg 53%
    21:00 +5°C° 0 mm 6 mps 741 mmHg 55%
    22:00 +5°C° 0 mm 6 mps 741 mmHg 57%
    23:00 +6°C° 0 mm 5 mps 741 mmHg 59%

    25 October, Thursday

    Time Temperature Precipitation Wind Pressure Humidity
    00:00 +5°C° 0 mm 4 mps 741 mmHg 61%
    01:00 +5°C° 0 mm 4 mps 741 mmHg 64%
    02:00 +5°C° 0 mm 4 mps 741 mmHg 65%
    03:00 +7°C° 0 mm 3 mps 741 mmHg 66%
    04:00 +7°C° 0 mm 3 mps 741 mmHg 67%
    05:00 +7°C° 0.5 mm 3 mps 741 mmHg 72%
    06:00 +7°C° 0.5 mm 3 mps 741 mmHg 78%
    07:00 +7°C° 0.5 mm 4 mps 740 mmHg 83%
    08:00 +8°C° 0.4 mm 4 mps 740 mmHg 80%
    09:00 +10°C° 0.4 mm 5 mps 740 mmHg 76%
    10:00 +11°C° 0.4 mm 6 mps 740 mmHg 73%
    11:00 +12°C° 0 mm 7 mps 740 mmHg 68%
    12:00 +14°C° 0 mm 7 mps 739 mmHg 64%
    13:00 +13°C° 0 mm 8 mps 739 mmHg 60%
    14:00 +14°C° 0 mm 7 mps 739 mmHg 60%
    15:00 +14°C° 0 mm 7 mps 739 mmHg 60%
    16:00 +14°C° 0 mm 6 mps 738 mmHg 61%
    17:00 +13°C° 0 mm 6 mps 739 mmHg 63%
    18:00 +11°C° 0 mm 6 mps 739 mmHg 65%
    19:00 +10°C° 0 mm 5 mps 739 mmHg 68%
    20:00 +10°C° 0 mm 5 mps 740 mmHg 69%
    21:00 +10°C° 0 mm 5 mps 740 mmHg 70%
    22:00 +9°C° 0 mm 5 mps 740 mmHg 72%
    23:00 +9°C° 0 mm 5 mps 740 mmHg 74%

    26 October, Friday

    Time Temperature Precipitation Wind Pressure Humidity
    00:00 +10°C° 0 mm 4 mps 740 mmHg 76%
    01:00 +8°C° 0 mm 4 mps 740 mmHg 78%
    02:00 +8°C° 0 mm 4 mps 740 mmHg 80%
    03:00 +8°C° 0 mm 3 mps 740 mmHg 82%
    04:00 +8°C° 0 mm 2 mps 740 mmHg 84%
    05:00 +8°C° 0 mm 2 mps 740 mmHg 85%
    06:00 +7°C° 0 mm 2 mps 740 mmHg 85%
    07:00 +8°C° 0 mm 1 mps 740 mmHg 86%
    08:00 +9°C° 0 mm 2 mps 740 mmHg 78%
    09:00 +12°C° 0 mm 2 mps 740 mmHg 70%
    10:00 +13°C° 0 mm 2 mps 740 mmHg 62%
    11:00 +14°C° 0 mm 2 mps 739 mmHg 59%
    12:00 +14°C° 0 mm 3 mps 739 mmHg 55%
    13:00 +16°C° 0 mm 3 mps 738 mmHg 51%
    14:00 +16°C° 0 mm 3 mps 738 mmHg 53%
    15:00 +16°C° 0 mm 3 mps 737 mmHg 55%
    16:00 +16°C° 0 mm 3 mps 737 mmHg 57%
    17:00 +14°C° 0 mm 3 mps 737 mmHg 60%
    18:00 +14°C° 0 mm 3 mps 736 mmHg 62%
    19:00 +13°C° 0 mm 3 mps 736 mmHg 65%
    20:00 +13°C° 0 mm 4 mps 736 mmHg 66%
    21:00 +13°C° 0 mm 4 mps 736 mmHg 67%
    22:00 +14°C° 0 mm 4 mps 735 mmHg 69%
    23:00 +13°C° 0 mm 4 mps 735 mmHg 72%

    27 October, Saturday

    Time Temperature Precipitation Wind Pressure Humidity
    00:00 +13°C° 0 mm 4 mps 735 mmHg 75%
    01:00 +13°C° 0 mm 4 mps 735 mmHg 78%
    02:00 +13°C° 0 mm 5 mps 734 mmHg 79%
    03:00 +13°C° 0 mm 5 mps 734 mmHg 80%
    04:00 +13°C° 0 mm 5 mps 734 mmHg 81%
    05:00 +14°C° 0 mm 5 mps 734 mmHg 81%
    06:00 +14°C° 0 mm 5 mps 734 mmHg 80%
    07:00 +14°C° 0 mm 5 mps 733 mmHg 80%
    08:00 +15°C° 0 mm 6 mps 733 mmHg 72%
    09:00 +17°C° 0 mm 7 mps 733 mmHg 63%
    10:00 +19°C° 0 mm 9 mps 733 mmHg 55%
    11:00 +21°C° 0 mm 9 mps 732 mmHg 51%
    12:00 +21°C° 0 mm 9 mps 731 mmHg 47%
    13:00 +22°C° 0 mm 9 mps 730 mmHg 43%
    14:00 +22°C° 0 mm 8 mps 730 mmHg 45%
    15:00 +21°C° 0 mm 7 mps 730 mmHg 48%
    16:00 +20°C° 0 mm 6 mps 729 mmHg 50%
    17:00 +20°C° 0.2 mm 6 mps 729 mmHg 53%
    18:00 +19°C° 0.2 mm 6 mps 729 mmHg 57%
    19:00 +18°C° 0.2 mm 7 mps 729 mmHg 60%
    20:00 +18°C° 0.2 mm 7 mps 729 mmHg 60%
    21:00 +18°C° 0.2 mm 7 mps 728 mmHg 59%
    22:00 +18°C° 0.2 mm 7 mps 728 mmHg 59%
    23:00 +17°C° 0.2 mm 7 mps 728 mmHg 59%

    28 October, Sunday

    Time Temperature Precipitation Wind Pressure Humidity
    00:00 +17°C° 0.2 mm 7 mps 728 mmHg 60%
    01:00 +17°C° 0.2 mm 7 mps 728 mmHg 61%
    02:00 +16°C° 0.7 mm 6 mps 728 mmHg 65%
    03:00 +14°C° 0.7 mm 6 mps 729 mmHg 70%
    04:00 +13°C° 0.7 mm 5 mps 729 mmHg 75%
    05:00 +12°C° 0.1 mm 4 mps 730 mmHg 76%
    06:00 +12°C° 0.1 mm 3 mps 731 mmHg 77%
    07:00 +12°C° 0.1 mm 2 mps 732 mmHg 78%
    08:00 +12°C° 0 mm 2 mps 732 mmHg 74%
    09:00 +13°C° 0 mm 2 mps 733 mmHg 71%
    10:00 +13°C° 0 mm 2 mps 734 mmHg 67%
    11:00 +14°C° 0 mm 2 mps 734 mmHg 64%
    12:00 +15°C° 0 mm 2 mps 734 mmHg 61%
    13:00 +16°C° 0 mm 2 mps 735 mmHg 58%
    14:00 +15°C° 0 mm 2 mps 735 mmHg 61%
    15:00 +15°C° 0 mm 2 mps 735 mmHg 63%
    16:00 +15°C° 0 mm 2 mps 735 mmHg 66%
    17:00 +14°C° 0 mm 2 mps 736 mmHg 70%
    18:00 +13°C° 0 mm 2 mps 736 mmHg 74%
    19:00 +13°C° 0 mm 2 mps 736 mmHg 78%
    20:00 +13°C° 0 mm 2 mps 736 mmHg 80%
    21:00 +13°C° 0 mm 1 mps 737 mmHg 83%
    22:00 +12°C° 0 mm 1 mps 737 mmHg 85%
    23:00 +12°C° 0 mm 2 mps 736 mmHg 87%
    Show more